RH
39 38 35 36 37 36 36 39 40 41 44 46 47 47 47 48 48 48 46 42 39 35 32 31 31 32 32 33 32 32 32 38
32 36 39 39 37 37 36 37 38 40 42 44 46 48 49 51 51 51 52 51 48 45 42 40 37 33 33 33 33 34 33 33
32 31 35 39 41 41 40 39 39 38 38 40 44 46 46 48 50 51 53 55 55 52 49 46 45 42 38 36 35 34 35 35
33 34 34 34 38 47 47 43 37 33 32 33 34 38 40 44 49 54 58 60 59 58 57 53 49 46 44 41 37 37 36 36
26 28 29 30 30 34 39 51 47 39 35 31 30 34 38 44 51 56 63 74 72 65 62 58 56 52 48 46 42 40 41 39
22 19 19 20 22 27 29 31 36 45 46 70 58 46 42 48 50 50 57 65 69 79 78 69 63 57 56 56 56 57 56 48
14 14 14 17 19 22 27 34 37 40 49 68 60 50 58 61 62 63 68 71 71 74 76 71 73 69 68 63 61 65 69 70
17 16 16 16 16 19 25 29 32 38 37 38 42 41 44 46 47 50 51 51 58 68 75 85 86 83 78 68 65 64 63 68
23 21 22 21 22 21 25 30 35 40 41 38 41 45 53 55 50 46 42 43 46 53 69 80 84 85 85 95 91 81 76 71
27 25 25 25 25 26 26 28 31 36 40 41 46 50 52 53 49 43 42 43 43 46 52 56 65 71 73 70 98 97 98 94
27 26 25 26 27 28 29 30 33 35 38 40 56 51 52 55 51 46 43 43 42 43 44 45 45 47 53 65 72 73 63 89
29 28 27 26 27 28 31 32 34 35 39 43 46 51 55 53 54 51 49 49 45 44 43 41 38 36 35 35 41 46 54 60
30 30 29 28 28 28 28 30 34 35 36 36 45 46 44 51 49 50 49 51 53 48 40 34 33 35 35 32 30 35 39 49
32 32 32 30 30 32 33 33 35 35 36 36 37 39 42 43 44 46 46 47 48 47 40 36 35 35 36 37 33 29 33 37
34 33 33 33 34 35 34 35 37 37 38 38 41 40 39 41 43 42 44 46 47 48 43 37 36 39 41 46 45 40 30 29
34 33 32 32 34 35 36 39 41 42 42 43 45 45 44 43 44 47 48 50 50 53 49 45 43 44 46 51 50 49 46 35
33 32 30 32 33 33 35 39 42 44 47 51 51 50 52 52 57 56 52 54 56 53 54 52 49 50 51 54 56 55 51 50
30 28 28 27 28 28 28 31 37 42 42 44 50 56 63 65 69 70 74 73 72 68 63 57 55 58 57 58 60 56 56 56
30 31 31 30 29 29 29 30 32 35 40 45 50 53 59 64 71 70 74 81 79 75 73 71 70 66 70 67 62 57 58 59
31 34 34 31 32 33 33 34 36 36 36 38 45 50 59 70 69 70 69 73 77 80 81 76 77 74 75 67 56 55 53 56